This is the latest recevied weather packets stored in our database for station/object JG6YPS-13. If no packets are shown the sender has not sent any weather packets the latest 10 day(s).
| Time | Temp. | Humidity | Pressure | Rain* | Wind** | Luminosity | Snow |
|---|---|---|---|---|---|---|---|
| 1777510945 | 17.22° C | 87% | 1013.4 hPa | 0.51 mm | - | - | - |
| 1777510346 | 17.22° C | 88% | 1013.7 hPa | 1.02 mm | - | - | - |
| 1777509746 | 17.22° C | 88% | 1013.7 hPa | 1.78 mm | - | - | - |
| 1777509147 | 17.22° C | 88% | 1013.8 hPa | 2.29 mm | - | - | - |
| 1777508547 | 16.67° C | 88% | 1013.8 hPa | 2.79 mm | - | - | - |
| 1777507947 | 16.67° C | 89% | 1013.9 hPa | 3.05 mm | - | - | - |
| 1777507348 | 16.11° C | 89% | 1014.1 hPa | 3.56 mm | - | - | - |
| 1777506748 | 16.11° C | 88% | 1014.1 hPa | 3.05 mm | - | - | - |
| 1777506149 | 16.11° C | 88% | 1014.2 hPa | 2.54 mm | - | - | - |
| 1777505549 | 16.11° C | 89% | 1014.2 hPa | 2.29 mm | - | - | - |
| 1777504950 | 15.56° C | 90% | 1014.3 hPa | 2.03 mm | - | - | - |
| 1777504350 | 15.56° C | 89% | 1014.3 hPa | 1.27 mm | - | - | - |
| 1777503751 | 15.56° C | 89% | 1014.1 hPa | 1.27 mm | - | - | - |
| 1777503151 | 15.56° C | 89% | 1014 hPa | 1.78 mm | - | - | - |
| 1777502552 | 15.56° C | 88% | 1013.6 hPa | 1.78 mm | - | - | - |
| 1777501952 | 15.56° C | 88% | 1013.4 hPa | 1.78 mm | - | - | - |
| 1777501353 | 15.56° C | 89% | 1013.7 hPa | 2.54 mm | - | - | - |
| 1777500753 | 15.56° C | 89% | 1013.9 hPa | 2.79 mm | - | - | - |
| 1777500154 | 15.56° C | 89% | 1014.1 hPa | 2.79 mm | - | - | - |
| 1777499555 | 15.56° C | 90% | 1014.3 hPa | 2.54 mm | - | - | - |
| 1777498955 | 15° C | 90% | 1014 hPa | 2.54 mm | - | - | - |
| 1777498356 | 15° C | 90% | 1013.7 hPa | 2.54 mm | - | - | - |
| 1777497756 | 15° C | 90% | 1013.6 hPa | 2.03 mm | - | - | - |
| 1777497157 | 15° C | 90% | 1013.6 hPa | 2.29 mm | - | - | - |
| 1777496557 | 15° C | 89% | 1013.7 hPa | 2.29 mm | - | - | - |
* Rain latest hour (hover to see other rain measurements)
** Current wind speed in m/s (hover to see current wind gust speed)